User: anonymous   Login
Location: Waco, TX
(31.5481°N, 97.1672°W)
Time: 03:22:35
(UTC-05:00)
Language:

PRISM - Orbit

View from above orbital plane
View from above orbital plane
View from above satellite
View from above satellite

Ground track
Ground track

The orbit data is extracted from the following two-line orbital elements,

1 33493U 09002B   18171.97999282 -.00000066  00000-0 -13671-6 0  9994
2 33493  98.1318  74.2172 0014769 309.3290  50.6620 14.96234789510918
Epoch (UTC): 20 June 2018 23:31:11
Eccentricity: 0.0014769
inclination: 98.1318°
perigee height: 568 km
apogee height: 589 km
right ascension of ascending node: 74.2172°
argument of perigee: 309.3290°
revolutions per day: 14.96234789
mean anomaly at epoch: 50.6620°
orbit number at epoch: 51091

The dashed part of the orbit path shows where the satellite is in the earth's shadow,  

DLR